Weather Roundup
Issued by NWS

Home | Current Version | Previous Version | Graphics & Text | Print | Product List | Glossary Off
Versions: 1 2 3 4 5 6 7 8 9 10 11 12 13 14 15 16 17 18 19 20 21 22 23 24 25 26 27 28 29 30 31 32 33 34 35 36 37 38 39 40 41 42 43 44 45 46 47 48 49 50

000
NZUS93 KARX 012310
HRRWXR

CURRENT HOURLY OBSERVATIONS ACROSS
MUCH OF THE UPPER MISSISSIPPI VALLEY
NATIONAL WEATHER SERVICE LA CROSSE WI
600 PM CDT WED OCT 01 2014


...SOUTHEAST MINNESOTA...


CITY           SKY/WX    TMP DP  RH WIND       PRES   REMARKS
ROCHESTER      CLOUDY    59  56  89 SE7       29.81R
ROCHESTER/MAYO CLOUDY    58  56  93 SE5       29.81R
WINONA         CLOUDY    59  55  88 SE5       29.81R
AUSTIN         CLOUDY    61  57  88 CALM      29.80R
ALBERT LEA     CLOUDY    61  61 100 SE5       29.78S FOG
DODGE CENTER   CLOUDY    61  57  88 S6        29.80S FOG
PRESTON        CLOUDY    58  54  85 CALM      29.82R
OWATONNA       PTCLDY    61  57  88 SE7       29.79R FOG
FARIBAULT      CLOUDY    61  57  88 S6        29.79R FOG
$$

...ELSEWHERE IN MINNESOTA...


CITY           SKY/WX    TMP DP  RH WIND       PRES   REMARKS
MINNEAPOLIS    CLOUDY    56  55  97 SE7       29.79R FOG
INTNL FALLS    CLOUDY    54  50  86 S9        29.68S
DULUTH         CLOUDY    50  48  93 S9        29.78S FOG
RED WING       CLOUDY    57  55  94 SE6       29.80R
REDWOOD FALLS  LGT RAIN  66  58  75 E5        29.74R
MANKATO        CLOUDY    63  55  77 SE8       29.76S
WORTHINGTON    CLOUDY    68  61  77 S6        29.74R
FAIRMONT       CLEAR     70  57  64 SE5       29.75S
$$

...SOUTHWEST WISCONSIN...


CITY           SKY/WX    TMP DP  RH WIND       PRES   REMARKS
LA CROSSE      CLOUDY    65  56  72 E6        29.81S
PRAIRIE DU CHI CLOUDY    69  55  61 SE5       29.81S
BOSCOBEL       CLOUDY    72  56  57 S5        29.82S
LONE ROCK      CLOUDY    73  55  53 E6        29.83S
PLATTEVILLE    MOCLDY    71  58  63 SE12      29.84S
FORT MC COY    CLOUDY    63  55  76 CALM      29.83S
CAMP DOUGLAS   MOCLDY    63  61  94 E5        29.84R
VIROQUA        CLOUDY    64  55  71 SE5       29.83S
WIS DELLS      CLOUDY    66  52  60 SE6       29.85S
$$

...ELSEWHERE IN WISCONSIN...


CITY           SKY/WX    TMP DP  RH WIND       PRES   REMARKS
MILWAUKEE      MOCLDY    60  53  77 SE12      29.92F
MADISON        CLOUDY    68  54  60 SE10      29.86R
GREEN BAY      CLOUDY    57  52  83 SE12      29.92S
EAU CLAIRE     CLOUDY    56  54  93 SE5       29.82R
BLACK RVR FLS  CLOUDY    59  55  84 CALM      29.82S
MEDFORD        LGT RAIN  55  52  92 SE6       29.84S
WAUSAU         CLOUDY    60  51  72 SE12      29.85R
WIS RAPIDS     LGT RAIN  61  53  75 SE6       29.86F
MARSHFIELD     LGT RAIN  60  52  74 SE10      29.84F
RICE LAKE      CLOUDY    53  52  95 SE7       29.83S FOG
$$

...NORTHEAST IOWA...


CITY           SKY/WX    TMP DP  RH WIND       PRES   REMARKS
DECORAH        CLOUDY    66  55  68 S3        29.80S
MASON CITY     CLOUDY    65  61  87 SE3       29.80R
CHARLES CITY   MOCLDY    66  59  77 SE5       29.79S
OELWEIN        CLOUDY    68  61  77 S8        29.81S
$$

...ELSEWHERE IN IOWA...


CITY           SKY/WX    TMP DP  RH WIND       PRES   REMARKS
DES MOINES     CLOUDY    71  64  78 S8        29.76S
IOWA CITY      CLOUDY    67  62  84 SE6       29.82S
FORT DODGE     MOCLDY    70  63  78 S5        29.77R
$$

...NORTHERN ILLINOIS...


CITY           SKY/WX    TMP DP  RH WIND       PRES   REMARKS
CHICAGO-OHARE  MOCLDY    67  53  61 E13       29.89S
CHICAGO-MIDWAY MOCLDY    71  55  56 SE10      29.89S
MOLINE         MOCLDY    70  60  70 SW3       29.82R
ROCKFORD       CLOUDY    71  55  56 SE7       29.86S
PEORIA         LGT RAIN  71  65  81 W5        29.86R
$$

NOTE: "FAIR" INDICATES FEW OR NO CLOUDS BELOW 12,000 FEET WITH NO
SIGNIFICANT WEATHER AND/OR OBSTRUCTIONS TO VISIBILITY. WIND
SPEEDS ARE IN MILES-PER-HOUR.



USA.gov is the U.S. government's official web portal to all federal, state and local government web resources and services.